Hourly Weather Holmy

Today, 13 April, Tuesday

Time Temperature Precipitation Wind Pressure Humidity
00:00 +12°C° 0 mm 3 mps 753 mmHg 71%
01:00 +12°C° 0 mm 3 mps 753 mmHg 73%
02:00 +11°C° 0 mm 3 mps 753 mmHg 75%
03:00 +11°C° 0 mm 3 mps 753 mmHg 77%
04:00 +11°C° 0.1 mm 4 mps 753 mmHg 76%
05:00 +11°C° 0.1 mm 4 mps 753 mmHg 76%
06:00 +10°C° 0.1 mm 5 mps 752 mmHg 76%
07:00 +12°C° 0 mm 5 mps 753 mmHg 68%
08:00 +13°C° 0 mm 6 mps 753 mmHg 60%
09:00 +14°C° 0 mm 6 mps 753 mmHg 52%
10:00 +15°C° 0 mm 6 mps 753 mmHg 55%
11:00 +15°C° 0 mm 7 mps 753 mmHg 58%
12:00 +15°C° 0 mm 7 mps 753 mmHg 61%
13:00 +16°C° 0 mm 7 mps 753 mmHg 61%
14:00 +16°C° 0 mm 7 mps 753 mmHg 61%
15:00 +17°C° 0 mm 7 mps 753 mmHg 62%
16:00 +16°C° 0 mm 6 mps 753 mmHg 64%
17:00 +16°C° 0 mm 5 mps 753 mmHg 66%
18:00 +16°C° 0 mm 3 mps 752 mmHg 68%
19:00 +14°C° 0.1 mm 3 mps 752 mmHg 74%
20:00 +14°C° 0.1 mm 2 mps 752 mmHg 79%
21:00 +13°C° 0.1 mm 1 mps 753 mmHg 85%
22:00 +12°C° 0 mm 1 mps 752 mmHg 85%
23:00 +12°C° 0 mm 1 mps 752 mmHg 86%

Tomorrow, 14 April, Wednesday

Time Temperature Precipitation Wind Pressure Humidity
00:00 +12°C° 0 mm 1 mps 752 mmHg 86%
01:00 +12°C° 0 mm 1 mps 751 mmHg 87%
02:00 +10°C° 0 mm 2 mps 751 mmHg 88%
03:00 +10°C° 0 mm 2 mps 751 mmHg 89%
04:00 +10°C° 0 mm 2 mps 750 mmHg 86%
05:00 +11°C° 0 mm 1 mps 750 mmHg 83%
06:00 +11°C° 0 mm 1 mps 750 mmHg 81%
07:00 +12°C° 0 mm 2 mps 750 mmHg 76%
08:00 +13°C° 0 mm 2 mps 750 mmHg 70%
09:00 +14°C° 0 mm 2 mps 750 mmHg 65%
10:00 +16°C° 0 mm 3 mps 749 mmHg 54%
11:00 +18°C° 0 mm 3 mps 749 mmHg 42%
12:00 +19°C° 0 mm 4 mps 749 mmHg 31%
13:00 +19°C° 0 mm 4 mps 749 mmHg 33%
14:00 +19°C° 0 mm 4 mps 748 mmHg 36%
15:00 +18°C° 0 mm 4 mps 748 mmHg 38%
16:00 +18°C° 0 mm 3 mps 748 mmHg 43%
17:00 +17°C° 0 mm 3 mps 748 mmHg 49%
18:00 +16°C° 0 mm 3 mps 748 mmHg 54%
19:00 +16°C° 0 mm 2 mps 748 mmHg 55%
20:00 +15°C° 0 mm 2 mps 748 mmHg 56%
21:00 +14°C° 0 mm 2 mps 748 mmHg 57%
22:00 +14°C° 0 mm 2 mps 747 mmHg 60%
23:00 +13°C° 0 mm 1 mps 747 mmHg 63%

Day after tomorrow, 15 April, Thursday

Time Temperature Precipitation Wind Pressure Humidity
00:00 +13°C° 0 mm 1 mps 747 mmHg 66%
01:00 +9°C° 0 mm 2 mps 747 mmHg 84%
02:00 +10°C° 0 mm 2 mps 747 mmHg 81%
03:00 +11°C° 0 mm 1 mps 747 mmHg 78%
04:00 +9°C° 0 mm 2 mps 747 mmHg 80%
05:00 +9°C° 0 mm 2 mps 747 mmHg 83%
06:00 +9°C° 0 mm 2 mps 747 mmHg 86%
07:00 +14°C° 0 mm 1 mps 747 mmHg 68%
08:00 +14°C° 0 mm 2 mps 747 mmHg 64%
09:00 +15°C° 0 mm 2 mps 747 mmHg 61%
10:00 +16°C° 0.1 mm 2 mps 747 mmHg 57%
11:00 +17°C° 0.1 mm 2 mps 747 mmHg 53%
12:00 +18°C° 0.1 mm 2 mps 747 mmHg 49%
13:00 +12°C° 0 mm 3 mps 747 mmHg 70%
14:00 +16°C° 0 mm 3 mps 747 mmHg 55%
15:00 +19°C° 0 mm 4 mps 747 mmHg 39%
16:00 +19°C° 0 mm 4 mps 747 mmHg 43%
17:00 +18°C° 0 mm 3 mps 747 mmHg 46%
18:00 +17°C° 0 mm 3 mps 747 mmHg 50%
19:00 +15°C° 0 mm 4 mps 748 mmHg 55%
20:00 +14°C° 0 mm 4 mps 748 mmHg 60%
21:00 +13°C° 0 mm 4 mps 748 mmHg 65%
22:00 +12°C° 0 mm 4 mps 748 mmHg 69%
23:00 +12°C° 0 mm 3 mps 748 mmHg 72%

16 April, Friday

Time Temperature Precipitation Wind Pressure Humidity
00:00 +12°C° 0 mm 2 mps 748 mmHg 76%
01:00 +10°C° 0 mm 2 mps 748 mmHg 80%
02:00 +10°C° 0 mm 2 mps 748 mmHg 84%
03:00 +9°C° 0 mm 2 mps 748 mmHg 88%
04:00 +9°C° 0 mm 2 mps 748 mmHg 90%
05:00 +8°C° 0 mm 2 mps 748 mmHg 92%
06:00 +8°C° 0 mm 2 mps 748 mmHg 94%
07:00 +9°C° 0 mm 2 mps 749 mmHg 84%
08:00 +12°C° 0 mm 2 mps 749 mmHg 75%
09:00 +13°C° 0 mm 2 mps 749 mmHg 65%
10:00 +13°C° 0 mm 3 mps 749 mmHg 59%
11:00 +14°C° 0 mm 3 mps 749 mmHg 53%
12:00 +15°C° 0 mm 4 mps 749 mmHg 47%
13:00 +17°C° 0 mm 4 mps 749 mmHg 45%
14:00 +17°C° 0 mm 4 mps 749 mmHg 42%
15:00 +17°C° 0 mm 5 mps 749 mmHg 40%
16:00 +16°C° 0 mm 5 mps 749 mmHg 43%
17:00 +15°C° 0 mm 5 mps 749 mmHg 46%
18:00 +14°C° 0 mm 5 mps 749 mmHg 50%
19:00 +13°C° 0 mm 4 mps 749 mmHg 53%
20:00 +12°C° 0 mm 4 mps 749 mmHg 57%
21:00 +11°C° 0 mm 3 mps 750 mmHg 61%
22:00 +11°C° 0.1 mm 3 mps 750 mmHg 63%
23:00 +10°C° 0.1 mm 3 mps 750 mmHg 64%

17 April, Saturday

Time Temperature Precipitation Wind Pressure Humidity
00:00 +10°C° 0.1 mm 2 mps 750 mmHg 65%
01:00 +9°C° 0.3 mm 2 mps 750 mmHg 67%
02:00 +9°C° 0.3 mm 2 mps 750 mmHg 70%
03:00 +9°C° 0.3 mm 2 mps 750 mmHg 72%
04:00 +8°C° 0.7 mm 2 mps 750 mmHg 76%
05:00 +8°C° 0.7 mm 2 mps 751 mmHg 79%
06:00 +8°C° 0.7 mm 2 mps 751 mmHg 83%
07:00 +8°C° 0.3 mm 3 mps 751 mmHg 78%
08:00 +9°C° 0.3 mm 3 mps 751 mmHg 73%
09:00 +9°C° 0.3 mm 3 mps 752 mmHg 67%
10:00 +10°C° 0.1 mm 3 mps 752 mmHg 62%
11:00 +11°C° 0.1 mm 3 mps 752 mmHg 57%
12:00 +12°C° 0.1 mm 3 mps 752 mmHg 52%
13:00 +12°C° 0.1 mm 3 mps 752 mmHg 50%
14:00 +13°C° 0.1 mm 3 mps 752 mmHg 48%
15:00 +13°C° 0.1 mm 3 mps 752 mmHg 47%
16:00 +14°C° 0 mm 2 mps 752 mmHg 46%
17:00 +14°C° 0 mm 2 mps 752 mmHg 46%
18:00 +14°C° 0 mm 2 mps 752 mmHg 46%
19:00 +13°C° 0 mm 2 mps 752 mmHg 51%
20:00 +12°C° 0 mm 2 mps 753 mmHg 56%
21:00 +10°C° 0 mm 2 mps 753 mmHg 61%
22:00 +10°C° 0 mm 2 mps 753 mmHg 63%
23:00 +10°C° 0 mm 1 mps 753 mmHg 66%

18 April, Sunday

Time Temperature Precipitation Wind Pressure Humidity
00:00 +10°C° 0 mm 1 mps 753 mmHg 69%
01:00 +10°C° 0 mm 1 mps 753 mmHg 71%
02:00 +9°C° 0 mm 2 mps 753 mmHg 73%
03:00 +8°C° 0 mm 2 mps 753 mmHg 75%
04:00 +8°C° 0 mm 2 mps 753 mmHg 76%
05:00 +8°C° 0 mm 2 mps 753 mmHg 78%
06:00 +8°C° 0 mm 2 mps 753 mmHg 80%
07:00 +8°C° 0 mm 2 mps 754 mmHg 75%
08:00 +9°C° 0 mm 2 mps 754 mmHg 71%
09:00 +10°C° 0 mm 3 mps 754 mmHg 66%
10:00 +11°C° 0 mm 3 mps 754 mmHg 61%
11:00 +13°C° 0 mm 3 mps 754 mmHg 55%
12:00 +14°C° 0 mm 3 mps 754 mmHg 49%
13:00 +14°C° 0 mm 3 mps 753 mmHg 50%
14:00 +15°C° 0 mm 2 mps 753 mmHg 50%
15:00 +15°C° 0 mm 2 mps 753 mmHg 51%
16:00 +14°C° 0 mm 2 mps 753 mmHg 54%
17:00 +14°C° 0 mm 2 mps 753 mmHg 57%
18:00 +14°C° 0 mm 2 mps 753 mmHg 60%
19:00 +13°C° 0 mm 2 mps 754 mmHg 62%
20:00 +11°C° 0 mm 3 mps 754 mmHg 65%
21:00 +11°C° 0 mm 3 mps 754 mmHg 67%
22:00 +10°C° 0 mm 3 mps 754 mmHg 71%
23:00 +10°C° 0 mm 4 mps 753 mmHg 74%
Show more